Regional Weather Roundup
Issued by NWS

Home | Current Version | Previous Version | Graphics & Text | Print | Product List | Glossary Off
Versions: 1 2 3 4 5 6 7 8 9 10 11 12 13 14 15 16 17 18 19 20 21 22 23 24 25 26 27 28 29 30 31 32 33 34 35 36 37 38 39 40 41 42 43 44 45 46 47 48 49 50

000
ASUS43 KTOP 021659
RWRKS

WEATHER ROUNDUP FOR KANSAS
NATIONAL WEATHER SERVICE GOODLAND KS
1200 PM CDT TUE SEP 02 2014

NOTE:  "FAIR" INDICATES FEW OR NO CLOUDS BELOW 12,000 FEET WITH NO
SIGNIFICANT WEATHER AND/OR OBSTRUCTIONS TO VISIBILITY.

KSZ001>006-013>018-027>032-041>047-021800-
NORTHWEST KANSAS

CITY           SKY/WX    TMP DP  RH WIND       PRES   REMARKS
GOODLAND       SUNNY     74  56  53 S12       30.09F
HAYS           SUNNY     79  63  57 SE9       30.03S
HILL CITY      SUNNY     78  60  53 CALM      30.04S
RUSSELL        SUNNY     80  65  59 E8        30.01S
$$

KSZ061>065-074>080-084>089-021800-
SOUTHWEST KANSAS

CITY           SKY/WX    TMP DP  RH WIND       PRES   REMARKS
DODGE CITY     CLOUDY    69  67  93 E9        30.05R FOG
ELKHART          N/A     74  63  69 NE7         N/A
GARDEN CITY    PTSUNNY   77  65  66 SE9       30.06R
GREAT BEND     CLOUDY    73  66  78 SE10      30.03R
LIBERAL        PTSUNNY   75  64  69 NE8       30.06S
$$

KSZ066>073-081>083-090>101-021800-
SOUTHEAST KANSAS

CITY           SKY/WX    TMP DP  RH WIND       PRES   REMARKS
CHANUTE        CLOUDY    74  67  78 S13       30.05R
COFFEYVILLE    CLOUDY    71  67  87 S10       30.05R
HUTCHINSON     CLOUDY    77  69  76 SE8       30.02R
NEWTON         CLOUDY    75  66  73 SE10      30.06R
PARSONS        CLOUDY    71  66  84 S7        30.07R
WICHITA INTL   PTSUNNY   81  66  60 SE10      30.01S
WICHITA JABRA  PTSUNNY   79  68  69 SE8       30.01S
WINFIELD       CLOUDY    74  69  85 SE9       30.04R
$$

KSZ007>012-019>026-033>040-048>060-102>105-021800-
NORTHEAST KANSAS

CITY           SKY/WX    TMP DP  RH WIND       PRES   REMARKS
CONCORDIA      SUNNY     77  64  64 E3        30.02S
EMPORIA        CLOUDY    72  70  93 SE5       30.02R
LAWRENCE       FOG       76  72  87 CALM      30.01R VSB 1/4
MANHATTAN      SUNNY     78  67  68 NE7       30.01R
OLATHE IND     CLOUDY    73  68  84 CALM      30.03R
OLATHE EXE     CLOUDY    73  68  84 E3        30.01R
SALINA         SUNNY     80  67  64 VRB7      30.01S
TOPEKA BILLARD MOSUNNY   80  70  71 VRB3      30.01R
TOPEKA FORBES  MOSUNNY   76  69  79 CALM      30.01S
$$



USA.gov is the U.S. government's official web portal to all federal, state and local government web resources and services.